Terug naar catalogus

BLOCK DM-SL R/B

ActiefGTO
NORAD 29046·ROCKET BODY· XX

Gelanceerd Apr 12, 2006 vanaf Sea Launch Platform

Loading…

TLE

VerouderendSource: Space-Track

Epoch: Sep 14, 2026, 11:59 UTC

1 29046U 06010B   26257.49968871 -.00000165  00000-0  00000-0 0  9995
2 29046   0.1514  53.5260 6786833 142.2601 122.4225  2.19418389163746

Volg BLOCK DM-SL R/B in realtime met AllMySat

Download on the App Store